Find Starlink 11599

NORAD ID: 63670 Int'l Des: 2025-085 Owner: SPXS Country: US Constellation: starlink operational
LEOCIRCULAR

リアルタイム位置

3D地球を読み込み中...

Starlink 11599について

説明を読み込み中...

次回通過

Passes for default location (London). Set your location on the main map for personalized predictions.

高度履歴

Loading altitude history...

軌道要素

1 63670U 25085G 26126.44671442 .00164197 00000-0 12580-2 0 9997
2 63670 43.0053 290.4403 0004180 244.8798 115.1636 15.70832968 59327
Epoch: May 6, 2026 • Age: 12 hours

現在のステータス

高度 356.2 km
速度 7.70 km/s
衛星直下点 -11.07°S, 78.7°W
打ち上げ日 Apr 28, 2025
運用期間 1 years
タイプ internet

技術仕様

分類 Payload
質量 960.00 kg
乾燥質量 910.00 kg
総質量 960.00 kg
長さ 0.30 m
直径 4.10 m
スパン 29.00 m
形状 Box + pan
製造者 SPXS
バスタイプ Starlink V2MD
フェーズステータス In Orbit
所有者/国 SPXS/US

Most Searched